Lid_Strength_Index
11 11 11 11 10 10 9 10 10 7 6 6 5 5 6 6 5 5 5 5 5 5 5 4 5 5 4
11 11 11 10 11 11 10 9 10 8 6 6 5 5 6 6 6 5 5 6 5 6 6 6 5 5 5
12 11 11 11 11 10 11 11 9 7 6 6 6 5 5 6 6 5 5 5 6 7 6 6 6 6 5
12 12 12 11 11 11 11 11 11 9 8 7 6 6 5 6 5 5 5 5 6 7 7 7 6 6 5
11 10 11 11 11 11 11 11 10 10 10 10 11 10 10 7 6 6 5 5 5 6 7 7 6 6 6
9 9 9 9 9 10 11 11 12 10 11 11 10 11 10 10 7 6 5 5 5 5 7 7 7 7 6
10 10 9 8 8 8 9 10 11 10 10 10 10 10 9 8 6 6 5 5 5 5 7 7 7 7 6
9 9 8 8 8 7 7 7 7 8 9 11 10 10 9 9 6 5 5 4 5 6 6 6 6 6 6
4 4 3 3 4 6 7 7 8 7 7 8 9 11 11 10 9 6 5 4 5 5 6 6 6 6 6
6 5 4 4 2 4 5 7 7 8 6 6 7 10 10 10 9 9 9 4 4 5 5 5 5 10 11
7 6 5 5 4 4 4 5 6 6 4 4 6 6 8 9 9 8 8 7 7 6 4 4 5 8 11
7 7 7 6 6 5 4 3 3 4 3 3 5 6 7 7 8 9 8 7 6 7 6 5 4 5 6
7 7 6 6 5 7 4 3 4 4 3 4 4 3 5 6 8 9 7 7 7 7 7 8 8 8 9
6 6 6 8 6 5 4 4 5 4 3 2 3 3 4 4 5 8 7 8 8 7 7 8 8 8 8
6 6 6 6 5 7 4 4 5 5 5 4 3 3 3 4 4 4 6 7 7 7 7 8 8 7 8
6 6 7 7 5 6 5 4 5 5 6 6 5 4 4 4 3 7 5 5 6 6 7 7 8 8 8
7 7 7 8 5 5 5 5 5 6 5 4 5 5 7 8 7 2 7 7 6 7 7 7 8 8 8